Regional Weather Roundup
Issued by NWS State College, PA

Home | Current Version | Previous Version | Text Only | Print | Product List | Glossary On
Versions: 1 2 3 4 5 6 7 8 9 10 11 12 13 14 15 16 17 18 19 20 21 22 23 24 25 26 27 28 29 30 31 32 33 34 35 36 37 38 39 40 41 42 43 44 45 46 47 48 49 50
000
ASUS41 KCTP 262310
RWRCTP

REGIONAL WEATHER ROUNDUP
NATIONAL WEATHER SERVICE STATE COLLEGE PA
700 PM EDT THU MAR 26 2015

Note: "fair" indicates few or no clouds below 12,000 feet with no
significant weather and/or obstructions to visibility.

* = STATION THAT DOES NOT REPORT PRECIPITATION /E.G. RAIN...SNOW...ETC/
    THUNDER OR FOG.

PAZ002>004-007>009-013>016-020>023-029>032-270000-
WESTERN PENNSYLVANIA

CITY           SKY/WX    TMP DP  RH WIND       PRES   REMARKS
ERIE           CLOUDY    34  31  88 W8        29.85R
MEADVILLE      CLOUDY    34  31  88 NW6       29.82R
FRANKLIN*      CLOUDY    36  32  87 NW8       29.82R
NEW CASTLE     CLOUDY    38  37  96 NW8       29.84R
BEAVER COUNTY  CLOUDY    41  39  93 CALM      29.81R
BUTLER*        CLOUDY    39  37  93 NW3       29.83R
PITTSBURGH INT LGT RAIN  42  39  89 NW6       29.82R
PITTSBURGH     CLOUDY    41  37  86 CALM      29.79S
INDIANA*       CLOUDY    41  39  93 N6        29.82R
LATROBE        LGT RAIN  41  41 100 N6        29.82R
WASHINGTON CO* CLOUDY    43  37  81 CALM      29.83S
$$

PAZ004>006-010>012-017>019-024>028-033>037-041-042-045-046-049>053-270000-
CENTRAL PENNSYLVANIA

CITY           SKY/WX    TMP DP  RH WIND       PRES   REMARKS
BRADFORD       CLOUDY    35  33  92 NW6       29.75S
DUBOIS         CLOUDY    39  35  86 N5        29.75S
CLEARFIELD     CLOUDY    39  36  89 N8        29.77R
JOHNSTOWN      LGT RAIN  39  37  92 NW15      29.74R FOG
ALTOONA        CLOUDY    44  38  79 NW14      29.74R
STATE COLLEGE  CLOUDY    43  39  87 W10       29.75R
WILLIAMSPORT   CLOUDY    44  39  82 NW9       29.72R
SELINSGROVE    LGT RAIN  47  44  90 N10       29.69R FOG
FT INDIANTOWN  CLOUDY    54  49  83 NW14G26   29.61R THUNDER
CAPITAL CITY   CLOUDY    57  51  80 NW10      29.64R THUNDER
HARRISBURG     CLOUDY    56  51  84 NW14      29.63R THUNDER
YORK           HVY RAIN  56  55  97 NW9       29.64R FOG
$$

PAZ038>040-043-044-047-048-054-055-060>062-067>071-270000-
EASTERN PENNSYLVANIA

CITY           SKY/WX    TMP DP  RH WIND       PRES   REMARKS
SCRANTON       LGT RAIN  43  38  82 NW8       29.69F
MOUNT POCONO   RAIN      41  39  93 NW13G22   29.64R FOG
ALLENTOWN      CLOUDY    50  48  93 NW9       29.61R FOG
QUAKERTOWN*    MOCLDY    64  59  82 SW3       29.59R
READING        CLOUDY    59  54  83 N13       29.57R
LANCASTER      CLOUDY    64  57  78 NW23G30   29.60R THUNDER
COATESVILLE    CLEAR     64  59  82 S6        29.58S
POTTSTOWN      PTCLDY    65  59  81 S9        29.58F
BLUE BELL      PTCLDY    64  59  82 S12       29.57F
DOYLESTOWN     CLOUDY    63  59  87 S9        29.57F
WILLOW GROVE   NOT AVBL
NORTH PHILA    CLOUDY    67  57  70 S13G25    29.60F
PHILADELPHIA   MOCLDY    64  58  80 S16       29.60F
$$


USA.gov is the U.S. government's official web portal to all federal, state and local government web resources and services.